Dalhart, TX

3:24 PM CDT on September 22, 2019 (GMT -0500)
Dalhart Municipal

Weather History for KDHT - August, 2019

Change the Weather History Date:

Saturday, August 24, 2019

  Actual Average Record
Temperature  
Mean Temperature 75 °F 74 °F  
Max Temperature 93 °F 88 °F 101 °F (2011)
Min Temperature 57 °F 61 °F 51 °F (1987)
Degree Days  
Heating Degree Days 0 0  
Month to date heating degree days 0 0  
Since 1 June heating degree days 6 13  
Since 1 July heating degree days 0 1  
Cooling Degree Days 10 10  
Month to date cooling degree days 377 257  
Year to date cooling degree days 1083 934  
Since 1 June cooling degree days 1053 862  
Growing Degree Days 25 (Base 50)    
Moisture  
Dew Point 59 °F    
Average Humidity 65    
Maximum Humidity 93    
Minimum Humidity 29    
Precipitation  
Precipitation T in 0.08 in 1.13 in (1969)
Month to date precipitation 1.09 2.36  
Year to date precipitation 9.77 12.86  
Snow  
Snow 0.00 in 0.00 in 0.00 in ()
Month to date snowfall 0.0 0.0  
Since 1 June snowfall 0.0 0.0  
Since 1 July snowfall 0.0 0.0  
Snow Depth 0.00 in    
Sea Level Pressure  
Sea Level Pressure 29.87 in    
Wind  
Wind Speed 9 mph ()    
Max Wind Speed 22 mph    
Max Gust Speed 30 mph    
Visibility 9.7 miles    
Events Rain    
T = Trace of Precipitation, MM = Missing Value Source: Averaged Metar Reports

Daily Weather History Graph

Daily Weather History Graph

Search for Another Location

Airport or City:

Astronomy

Aug. 24, 2019 Rise Set
Actual Time 7:15 AM CDT 8:28 PM CDT
Civil Twilight 6:48 AM CDT 8:55 PM CDT
Nautical Twilight 6:17 AM CDT 9:27 PM CDT
Astronomical Twilight 5:44 AM CDT 10:00 PM CDT
Moon 1:13 AM CDT (8/24) 3:42 PM CDT (8/24)
Length of Visible Light 14h 06m
Length of Day
13h 13m
Last Quarter, 39% of the Moon is Illuminated
Aug 24
Last Quarter
Aug 30
New
Sep 5
First Quarter
Sep 13
Full
Sep 21
Last Quarter

Hourly Weather History & Observations

Time (CDT) Temp. Heat Index Dew Point Humidity Pressure Visibility Wind Dir Wind Speed Gust Speed Precip Events Conditions
12:53 AM 63.0 °F - 57.9 °F 84% 29.91 in 10.0 mi East 17.3 mph - N/A   Clear
1:53 AM 63.0 °F - 57.9 °F 84% 29.93 in 10.0 mi ESE 5.8 mph - N/A   Clear
2:53 AM 60.1 °F - 57.9 °F 93% 29.90 in 10.0 mi SW 4.6 mph - N/A   Clear
3:53 AM 62.1 °F - 57.0 °F 84% 29.90 in 10.0 mi NNE 5.8 mph - N/A   Clear
4:53 AM 59.0 °F - 57.0 °F 93% 29.91 in 9.0 mi West 6.9 mph - N/A   Clear
5:53 AM 59.0 °F - 55.9 °F 90% 29.91 in 10.0 mi West 5.8 mph - N/A   Clear
6:53 AM 57.9 °F - 55.9 °F 93% 29.94 in 8.0 mi West 3.5 mph - N/A   Clear
7:53 AM 59.0 °F - 57.0 °F 93% 29.97 in 5.0 mi SW 4.6 mph - N/A   Clear
8:53 AM 64.0 °F - 60.1 °F 87% 29.97 in 10.0 mi SSW 4.6 mph - N/A   Clear
9:53 AM 64.9 °F - 59.0 °F 81% 29.96 in 10.0 mi SW 9.2 mph - N/A   Clear
10:53 AM 73.9 °F - 61.0 °F 64% 29.93 in 10.0 mi SSW 12.7 mph - N/A   Clear
11:53 AM 79.0 °F - 59.0 °F 50% 29.90 in 10.0 mi SSW 13.8 mph 21.9 mph N/A   Clear
12:53 PM 82.0 °F 82.1 °F 59.0 °F 45% 29.89 in 10.0 mi South 16.1 mph - N/A   Clear
1:53 PM 84.0 °F 84.0 °F 60.1 °F 44% 29.85 in 10.0 mi South 15.0 mph - N/A   Clear
2:53 PM 86.0 °F 85.7 °F 60.1 °F 41% 29.84 in 10.0 mi South 12.7 mph 21.9 mph N/A   Clear
3:53 PM 89.1 °F 88.0 °F 57.9 °F 35% 29.80 in 10.0 mi SSW 18.4 mph 24.2 mph N/A   Clear
4:53 PM 91.0 °F 90.0 °F 57.9 °F 33% 29.78 in 10.0 mi South 15.0 mph 26.5 mph N/A   Clear
5:53 PM 91.0 °F 89.2 °F 55.9 °F 30% 29.75 in 10.0 mi South 12.7 mph - N/A   Clear
6:53 PM 90.0 °F 87.7 °F 54.0 °F 29% 29.77 in 10.0 mi South 16.1 mph - N/A   Clear
7:53 PM 82.9 °F 84.0 °F 63.0 °F 51% 29.80 in 10.0 mi East 13.8 mph - N/A   Scattered Clouds
8:53 PM 78.1 °F - 64.9 °F 64% 29.80 in 10.0 mi SE 15.0 mph - 0.00 in Rain Light Rain
10:53 PM 77.0 °F - 64.9 °F 66% 29.80 in 10.0 mi SSE 13.8 mph - N/A   Clear
11:53 PM 77.0 °F - 63.0 °F 62% 29.79 in 10.0 mi South 15.0 mph - N/A   Clear